• In Deutschland
  • Länderverzeichnis
  • Für 7 Tage
  • Wassertemperatur
  • Satellitenkarten
  • Wetterkarte
  • Widgets
  • user-avatar
    Anmelden

    Stündliche Wetter Julara

    Heute, 21 Oktober, Sonntag

    Zeit Temperatur Niederschläge Wind Luftdruck Luftfeuchtigkeit
    00:00 +23°C° 0 mm 6 m/S 719 mmHg 20%
    01:00 +22°C° 0 mm 6 m/S 719 mmHg 21%
    02:00 +21°C° 0 mm 5 m/S 719 mmHg 22%
    03:00 +20°C° 0 mm 5 m/S 718 mmHg 23%
    04:00 +20°C° 0 mm 5 m/S 719 mmHg 23%
    05:00 +19°C° 0 mm 5 m/S 719 mmHg 24%
    06:00 +19°C° 0 mm 4 m/S 719 mmHg 25%
    07:00 +21°C° 0 mm 5 m/S 719 mmHg 22%
    08:00 +25°C° 0 mm 5 m/S 720 mmHg 19%
    09:00 +27°C° 0 mm 6 m/S 720 mmHg 16%
    10:00 +29°C° 0 mm 5 m/S 719 mmHg 15%
    11:00 +32°C° 0 mm 4 m/S 719 mmHg 14%
    12:00 +34°C° 0 mm 3 m/S 718 mmHg 13%
    13:00 +35°C° 0 mm 3 m/S 718 mmHg 11%
    14:00 +36°C° 0 mm 3 m/S 717 mmHg 10%
    15:00 +36°C° 0 mm 2 m/S 716 mmHg 9%
    16:00 +35°C° 0 mm 2 m/S 716 mmHg 9%
    17:00 +35°C° 0 mm 2 m/S 716 mmHg 9%
    18:00 +35°C° 0 mm 2 m/S 716 mmHg 10%
    19:00 +32°C° 0 mm 2 m/S 716 mmHg 10%
    20:00 +30°C° 0 mm 2 m/S 716 mmHg 11%
    21:00 +29°C° 0 mm 2 m/S 716 mmHg 12%
    22:00 +28°C° 0 mm 2 m/S 716 mmHg 12%
    23:00 +28°C° 0 mm 2 m/S 716 mmHg 13%

    Morgen, 22 Oktober, Montag

    Zeit Temperatur Niederschläge Wind Luftdruck Luftfeuchtigkeit
    00:00 +27°C° 0 mm 3 m/S 716 mmHg 13%
    01:00 +26°C° 0 mm 2 m/S 716 mmHg 15%
    02:00 +25°C° 0 mm 2 m/S 716 mmHg 16%
    03:00 +24°C° 0 mm 2 m/S 715 mmHg 18%
    04:00 +24°C° 0 mm 2 m/S 715 mmHg 18%
    05:00 +23°C° 0 mm 2 m/S 716 mmHg 19%
    06:00 +23°C° 0 mm 2 m/S 716 mmHg 20%
    07:00 +26°C° 0 mm 2 m/S 716 mmHg 17%
    08:00 +29°C° 0 mm 3 m/S 716 mmHg 13%
    09:00 +34°C° 0 mm 3 m/S 717 mmHg 10%
    10:00 +35°C° 0 mm 3 m/S 717 mmHg 9%
    11:00 +36°C° 0 mm 2 m/S 717 mmHg 8%
    12:00 +37°C° 0 mm 2 m/S 716 mmHg 7%
    13:00 +38°C° 0 mm 2 m/S 716 mmHg 6%
    14:00 +39°C° 0 mm 2 m/S 715 mmHg 6%
    15:00 +39°C° 0 mm 2 m/S 715 mmHg 6%
    16:00 +38°C° 0 mm 2 m/S 715 mmHg 7%
    17:00 +37°C° 0 mm 1 m/S 715 mmHg 8%
    18:00 +36°C° 0 mm 1 m/S 715 mmHg 9%
    19:00 +34°C° 0 mm 1 m/S 715 mmHg 9%
    20:00 +32°C° 0 mm 2 m/S 715 mmHg 10%
    21:00 +31°C° 0 mm 2 m/S 715 mmHg 10%
    22:00 +30°C° 0 mm 4 m/S 715 mmHg 12%
    23:00 +29°C° 0 mm 6 m/S 715 mmHg 15%

    übermorgen, 23 Oktober, Dienstag

    Zeit Temperatur Niederschläge Wind Luftdruck Luftfeuchtigkeit
    00:00 +29°C° 0 mm 7 m/S 715 mmHg 17%
    01:00 +28°C° 0 mm 8 m/S 715 mmHg 21%
    02:00 +27°C° 0 mm 8 m/S 715 mmHg 24%
    03:00 +24°C° 0 mm 8 m/S 715 mmHg 28%
    04:00 +23°C° 0 mm 8 m/S 716 mmHg 33%
    05:00 +22°C° 0 mm 8 m/S 716 mmHg 37%
    06:00 +21°C° 0 mm 8 m/S 717 mmHg 42%
    07:00 +23°C° 0 mm 8 m/S 717 mmHg 39%
    08:00 +24°C° 0 mm 9 m/S 718 mmHg 36%
    09:00 +26°C° 0 mm 10 m/S 718 mmHg 33%
    10:00 +29°C° 0 mm 9 m/S 718 mmHg 28%
    11:00 +32°C° 0 mm 8 m/S 718 mmHg 22%
    12:00 +34°C° 0 mm 7 m/S 717 mmHg 17%
    13:00 +35°C° 0 mm 6 m/S 717 mmHg 15%
    14:00 +38°C° 0 mm 6 m/S 716 mmHg 14%
    15:00 +39°C° 0 mm 5 m/S 715 mmHg 12%
    16:00 +38°C° 0 mm 6 m/S 715 mmHg 13%
    17:00 +36°C° 0 mm 7 m/S 715 mmHg 14%
    18:00 +35°C° 0 mm 7 m/S 715 mmHg 15%
    19:00 +34°C° 0 mm 8 m/S 716 mmHg 17%
    20:00 +32°C° 0 mm 8 m/S 716 mmHg 19%
    21:00 +31°C° 0 mm 8 m/S 717 mmHg 21%
    22:00 +29°C° 0 mm 8 m/S 717 mmHg 22%
    23:00 +28°C° 0 mm 9 m/S 717 mmHg 22%

    24 Oktober, Mittwoch

    Zeit Temperatur Niederschläge Wind Luftdruck Luftfeuchtigkeit
    00:00 +27°C° 0 mm 9 m/S 717 mmHg 23%
    01:00 +26°C° 0 mm 9 m/S 717 mmHg 23%
    02:00 +26°C° 0 mm 8 m/S 717 mmHg 24%
    03:00 +24°C° 0 mm 8 m/S 717 mmHg 24%
    04:00 +24°C° 0 mm 8 m/S 717 mmHg 24%
    05:00 +24°C° 0 mm 8 m/S 717 mmHg 24%
    06:00 +23°C° 0 mm 7 m/S 717 mmHg 24%
    07:00 +26°C° 0 mm 8 m/S 718 mmHg 21%
    08:00 +29°C° 0 mm 9 m/S 718 mmHg 18%
    09:00 +32°C° 0 mm 10 m/S 718 mmHg 15%
    10:00 +34°C° 0 mm 9 m/S 718 mmHg 13%
    11:00 +38°C° 0 mm 9 m/S 718 mmHg 11%
    12:00 +40°C° 0 mm 8 m/S 717 mmHg 10%
    13:00 +41°C° 0 mm 6 m/S 716 mmHg 9%
    14:00 +41°C° 0 mm 5 m/S 715 mmHg 9%
    15:00 +42°C° 0 mm 4 m/S 714 mmHg 9%
    16:00 +41°C° 0 mm 4 m/S 714 mmHg 10%
    17:00 +39°C° 0 mm 3 m/S 714 mmHg 11%
    18:00 +39°C° 0 mm 3 m/S 714 mmHg 12%
    19:00 +38°C° 0 mm 3 m/S 715 mmHg 13%
    20:00 +37°C° 0 mm 3 m/S 715 mmHg 13%
    21:00 +36°C° 0 mm 4 m/S 715 mmHg 14%
    22:00 +35°C° 0 mm 4 m/S 715 mmHg 14%
    23:00 +34°C° 0 mm 4 m/S 715 mmHg 15%

    25 Oktober, Donnerstag

    Zeit Temperatur Niederschläge Wind Luftdruck Luftfeuchtigkeit
    00:00 +33°C° 0 mm 5 m/S 715 mmHg 15%
    01:00 +33°C° 0 mm 4 m/S 715 mmHg 17%
    02:00 +33°C° 0 mm 4 m/S 715 mmHg 19%
    03:00 +31°C° 0 mm 3 m/S 715 mmHg 21%
    04:00 +31°C° 0 mm 3 m/S 715 mmHg 23%
    05:00 +30°C° 0 mm 3 m/S 715 mmHg 25%
    06:00 +29°C° 0 mm 2 m/S 715 mmHg 26%
    07:00 +32°C° 0 mm 4 m/S 716 mmHg 26%
    08:00 +34°C° 0 mm 5 m/S 716 mmHg 25%
    09:00 +36°C° 0 mm 7 m/S 716 mmHg 25%
    10:00 +38°C° 0 mm 8 m/S 716 mmHg 23%
    11:00 +39°C° 0 mm 9 m/S 716 mmHg 21%
    12:00 +41°C° 0 mm 11 m/S 716 mmHg 19%
    13:00 +40°C° 0 mm 10 m/S 715 mmHg 20%
    14:00 +39°C° 0 mm 10 m/S 715 mmHg 21%
    15:00 +38°C° 0 mm 9 m/S 714 mmHg 22%
    16:00 +38°C° 0.1 mm 8 m/S 714 mmHg 22%
    17:00 +38°C° 0.1 mm 7 m/S 714 mmHg 22%
    18:00 +36°C° 0.1 mm 6 m/S 715 mmHg 22%
    19:00 +35°C° 0 mm 5 m/S 715 mmHg 25%
    20:00 +34°C° 0 mm 4 m/S 715 mmHg 28%
    21:00 +31°C° 0 mm 3 m/S 715 mmHg 30%
    22:00 +30°C° 0.1 mm 2 m/S 715 mmHg 33%
    23:00 +30°C° 0.1 mm 2 m/S 715 mmHg 35%

    26 Oktober, Freitag

    Zeit Temperatur Niederschläge Wind Luftdruck Luftfeuchtigkeit
    00:00 +29°C° 0.1 mm 1 m/S 715 mmHg 37%
    01:00 +28°C° 0.3 mm 2 m/S 715 mmHg 40%
    02:00 +27°C° 0.3 mm 2 m/S 715 mmHg 43%
    03:00 +27°C° 0.3 mm 2 m/S 715 mmHg 46%
    04:00 +26°C° 0.5 mm 3 m/S 715 mmHg 50%
    05:00 +26°C° 0.5 mm 3 m/S 715 mmHg 53%
    06:00 +25°C° 0.5 mm 3 m/S 716 mmHg 56%
    07:00 +26°C° 0.9 mm 4 m/S 716 mmHg 56%
    08:00 +26°C° 0.9 mm 5 m/S 716 mmHg 55%
    09:00 +26°C° 0.9 mm 6 m/S 717 mmHg 55%
    10:00 +27°C° 0.8 mm 7 m/S 716 mmHg 51%
    11:00 +27°C° 0.8 mm 7 m/S 716 mmHg 48%
    12:00 +27°C° 0.8 mm 7 m/S 715 mmHg 44%
    13:00 +28°C° 0.3 mm 9 m/S 715 mmHg 39%
    14:00 +31°C° 0.3 mm 10 m/S 714 mmHg 33%
    15:00 +32°C° 0.3 mm 12 m/S 714 mmHg 28%
    16:00 +33°C° 0 mm 10 m/S 713 mmHg 25%
    17:00 +33°C° 0 mm 9 m/S 713 mmHg 22%
    18:00 +33°C° 0 mm 8 m/S 713 mmHg 19%
    19:00 +32°C° 0 mm 7 m/S 713 mmHg 20%
    20:00 +30°C° 0 mm 7 m/S 714 mmHg 21%
    21:00 +28°C° 0 mm 6 m/S 714 mmHg 23%
    22:00 +28°C° 0 mm 5 m/S 714 mmHg 24%
    23:00 +27°C° 0 mm 5 m/S 714 mmHg 25%
    Mehr zeigen